Meath Environmental Platform

Observations for Trim Market St

Time AQI Temp °C Hum % Pres Pa CO μg/m³ H₂S μg/m³ NO μg/m³ NO₂ μg/m³ O₃ μg/m³ SO₂ μg/m³ PM1 μg/m³ PM2.5 μg/m³ PM10 μg/m³
Saturday 15 August 2026
00:03 2 18.1 70 54,459 0.08 0 1.36 10.05 55.46 0 0 1.1 2.53
00:02 2 18 70 54,472 0.08 0 1.42 11.63 52.21 0 0 1.1 2.53
00:01 2 18.1 70 54,482 0.07 0 1.42 11.66 55.28 0 0 1.1 2.53
00:00 2 18.1 70 54,480 0.09 0 1.51 11.66 54.52 0 0 1.1 2.53
Friday 14 August 2026
23:59 2 18.1 70 54,496 0.06 0 1.46 10.75 54.81 0 0 1.1 3.15
23:58 2 18.1 70 54,524 0.04 0 1.45 8.72 53.1 0 0 1.1 2.53
23:57 2 18.1 70 54,534 0.05 0 1.49 8.72 56.98 0 0 1.1 2.53
23:56 2 18.1 70 54,528 0.06 0 1.4 9.8 51.59 0 0 1.11 2.52
23:55 2 18.1 70 54,514 0.05 0 1.35 7.47 65.97 0 0 1.11 2.52
23:52 2 18.1 70 54,475 0.11 0 1.34 11.73 54.44 0 0 1.59 3.15
23:51 2 18.1 70 54,478 0.18 0 1.34 9.8 58.06 0 0 1.11 2.52
23:47 2 18.1 70 54,553 0.06 0 1.33 10 56.68 0 0 1.11 2.52
23:46 2 18.1 70 54,545 0.06 0 1.33 10.69 57.37 0 0 1.11 2.52
23:37 2 18.2 70 54,518 0.04 0 1.32 11.65 58.31 0 0 1.11 2.51
23:36 2 18.2 70 54,534 0.05 0 1.32 11.82 58.91 0 0 1.11 2.51
23:35 2 18.2 70 54,536 0.05 0 1.32 12.5 58.28 0 0 1.11 2.51
23:34 2 18.2 70 54,528 0.07 0 1.32 12.2 54.48 0 0 1.6 3.13
23:33 2 18.2 70 54,524 0.04 0 1.34 11.64 55.85 0 0 1.12 2.51
23:32 2 18.2 70 54,497 0.05 0 1.34 10.05 57.98 0 0 1.11 2.51
23:28 2 18.3 70 54,290 0.06 0 1.31 9.48 60.18 0 0 1.11 2.51